TimeCDT,TemperatureF,Dew PointF,Humidity,Sea Level PressureIn,VisibilityMPH,Wind Direction,Wind SpeedMPH,Gust SpeedMPH,PrecipitationIn,Events,Conditions,WindDirDegrees,DateUTC
12:15 AM,67.3,67.3,100,29.96,10.0,SE,8.1,-,N/A,,Clear,140,2013-04-08 05:15:00
12:55 AM,66.6,66.6,100,29.96,10.0,SSE,4.6,-,N/A,,Clear,150,2013-04-08 05:55:00
1:15 AM,66.4,66.4,100,29.96,10.0,SSE,5.8,-,N/A,,Clear,150,2013-04-08 06:15:00
1:35 AM,66.4,66.4,100,29.95,10.0,SE,8.1,-,N/A,,Clear,140,2013-04-08 06:35:00
1:55 AM,66.4,66.4,100,29.95,10.0,SSE,5.8,-,N/A,,Clear,150,2013-04-08 06:55:00
2:15 AM,66.4,66.4,100,29.94,10.0,SE,5.8,-,N/A,,Clear,140,2013-04-08 07:15:00
2:55 AM,66.2,66.2,100,29.93,10.0,SE,5.8,-,N/A,,Scattered Clouds,140,2013-04-08 07:55:00
3:15 AM,66.4,66.4,100,29.93,10.0,SE,5.8,-,N/A,,Scattered Clouds,140,2013-04-08 08:15:00
3:35 AM,66.2,66.2,100,29.92,10.0,SE,5.8,-,N/A,,Clear,140,2013-04-08 08:35:00
3:55 AM,65.8,65.8,100,29.92,10.0,SE,6.9,-,N/A,,Clear,140,2013-04-08 08:55:00
4:15 AM,65.5,65.5,100,29.92,10.0,SE,5.8,-,N/A,,Clear,140,2013-04-08 09:15:00
4:35 AM,65.5,65.5,100,29.92,10.0,SE,5.8,-,N/A,,Clear,130,2013-04-08 09:35:00
4:55 AM,65.3,65.3,100,29.92,10.0,SE,4.6,-,N/A,,Clear,130,2013-04-08 09:55:00
5:15 AM,64.9,64.9,100,29.92,10.0,SE,3.5,-,N/A,,Clear,130,2013-04-08 10:15:00
5:35 AM,64.6,64.6,100,29.92,10.0,ESE,3.5,-,N/A,,Clear,110,2013-04-08 10:35:00
5:55 AM,63.5,63.5,100,29.93,2.0,Calm,Calm,-,N/A,,Clear,0,2013-04-08 10:55:00
6:15 AM,63.5,63.5,100,29.94,2.5,SE,3.5,-,N/A,,Clear,140,2013-04-08 11:15:00
6:35 AM,63.7,63.7,100,29.94,0.8,Calm,Calm,-,N/A,,Mist,0,2013-04-08 11:35:00
6:55 AM,63.7,63.7,100,29.94,1.0,Calm,Calm,-,N/A,,Mist,0,2013-04-08 11:55:00
7:15 AM,62.1,62.1,100,29.95,0.2,Calm,Calm,-,N/A,Fog,Fog,0,2013-04-08 12:15:00
7:35 AM,63.1,63.1,100,29.95,1.2,Calm,Calm,-,N/A,,Mist,0,2013-04-08 12:35:00
7:55 AM,65.8,65.8,100,29.95,10.0,Calm,Calm,-,N/A,,Clear,0,2013-04-08 12:55:00
8:15 AM,67.1,67.1,100,29.95,10.0,SE,4.6,-,N/A,,Clear,130,2013-04-08 13:15:00
8:35 AM,69.1,69.1,100,29.96,10.0,SE,9.2,-,N/A,,Clear,140,2013-04-08 13:35:00
8:55 AM,71.2,69.6,95,29.96,10.0,SSE,11.5,-,N/A,,Scattered Clouds,150,2013-04-08 13:55:00
9:15 AM,72.3,69.8,92,29.96,10.0,SE,12.7,-,N/A,,Mostly Cloudy,130,2013-04-08 14:15:00
9:35 AM,73.4,69.3,87,29.96,10.0,SSE,11.5,-,N/A,,Overcast,150,2013-04-08 14:35:00
9:55 AM,74.3,68.9,83,29.97,10.0,SE,11.5,19.6,N/A,,Scattered Clouds,130,2013-04-08 14:55:00
10:15 AM,73.4,68.0,83,29.97,10.0,SE,12.7,20.7,N/A,,Clear,140,2013-04-08 15:15:00
10:55 AM,76.5,68.0,75,29.98,10.0,SE,16.1,23.0,N/A,,Mostly Cloudy,140,2013-04-08 15:55:00
11:15 AM,77.7,68.4,73,29.98,10.0,SSE,12.7,18.4,N/A,,Mostly Cloudy,150,2013-04-08 16:15:00
11:35 AM,77.2,67.3,71,29.98,10.0,SSE,17.3,21.9,N/A,,Mostly Cloudy,150,2013-04-08 16:35:00
11:55 AM,77.2,66.9,71,29.98,10.0,SE,16.1,24.2,N/A,,Mostly Cloudy,140,2013-04-08 16:55:00
12:15 PM,77.9,67.5,70,29.98,10.0,SSE,16.1,21.9,N/A,,Mostly Cloudy,150,2013-04-08 17:15:00
12:35 PM,77.5,67.8,72,29.98,10.0,SE,16.1,21.9,N/A,,Overcast,140,2013-04-08 17:35:00
12:55 PM,77.7,67.6,71,29.97,10.0,SSE,17.3,23.0,N/A,,Mostly Cloudy,150,2013-04-08 17:55:00
1:15 PM,77.9,66.9,69,29.96,10.0,SE,17.3,26.5,N/A,,Mostly Cloudy,140,2013-04-08 18:15:00
1:35 PM,77.4,67.5,71,29.96,10.0,SSE,15.0,25.3,N/A,,Overcast,150,2013-04-08 18:35:00
1:55 PM,77.5,67.6,71,29.95,10.0,SSE,15.0,25.3,N/A,,Overcast,160,2013-04-08 18:55:00
2:15 PM,77.4,67.1,71,29.94,10.0,SE,18.4,28.8,N/A,,Overcast,140,2013-04-08 19:15:00
2:35 PM,77.7,67.3,70,29.94,10.0,SE,19.6,25.3,N/A,,Mostly Cloudy,140,2013-04-08 19:35:00
2:55 PM,78.1,68.0,71,29.93,10.0,SE,20.7,28.8,N/A,,Mostly Cloudy,140,2013-04-08 19:55:00
3:15 PM,79.5,68.4,69,29.92,10.0,SE,15.0,20.7,N/A,,Mostly Cloudy,140,2013-04-08 20:15:00
3:35 PM,79.0,68.4,70,29.94,10.0,SSE,16.1,21.9,N/A,,Overcast,150,2013-04-08 20:35:00
3:55 PM,77.9,68.2,72,29.93,10.0,SSE,18.4,28.8,N/A,,Overcast,150,2013-04-08 20:55:00
4:15 PM,78.4,68.5,72,29.92,10.0,SE,18.4,25.3,N/A,,Mostly Cloudy,130,2013-04-08 21:15:00
4:35 PM,77.4,67.8,72,29.91,10.0,SSE,15.0,26.5,N/A,,Mostly Cloudy,150,2013-04-08 21:35:00
4:55 PM,76.1,68.0,76,29.93,10.0,SE,12.7,23.0,N/A,,Overcast,130,2013-04-08 21:55:00
5:15 PM,76.1,68.2,76,29.93,10.0,SE,12.7,-,N/A,,Mostly Cloudy,130,2013-04-08 22:15:00
5:35 PM,74.7,68.2,80,29.92,10.0,SE,8.1,18.4,N/A,,Mostly Cloudy,140,2013-04-08 22:35:00
5:55 PM,74.7,68.5,81,29.92,10.0,SE,9.2,-,N/A,,Scattered Clouds,130,2013-04-08 22:55:00
6:15 PM,74.3,68.5,82,29.91,10.0,SE,10.4,-,N/A,,Scattered Clouds,140,2013-04-08 23:15:00
6:55 PM,73.4,69.4,87,29.91,10.0,SE,8.1,-,N/A,,Clear,130,2013-04-08 23:55:00
7:15 PM,72.7,68.9,88,29.90,10.0,SE,9.2,17.3,N/A,,Clear,130,2013-04-09 00:15:00
7:55 PM,71.8,68.5,89,29.92,10.0,SSE,8.1,-,N/A,,Clear,150,2013-04-09 00:55:00
8:15 PM,71.6,68.9,91,29.92,10.0,SSE,9.2,-,N/A,,Clear,150,2013-04-09 01:15:00
8:55 PM,70.9,68.5,92,29.92,10.0,SE,8.1,-,N/A,,Clear,130,2013-04-09 01:55:00
9:15 PM,70.9,68.7,93,29.92,10.0,ESE,6.9,-,N/A,,Clear,120,2013-04-09 02:15:00
9:35 PM,70.7,68.7,93,29.92,10.0,ESE,8.1,-,N/A,,Clear,120,2013-04-09 02:35:00
9:55 PM,70.2,68.9,96,29.93,10.0,SE,6.9,-,N/A,,Clear,130,2013-04-09 02:55:00
10:15 PM,70.3,69.1,96,29.94,10.0,ESE,8.1,-,N/A,,Scattered Clouds,120,2013-04-09 03:15:00
10:35 PM,70.2,69.4,98,29.94,10.0,ESE,5.8,-,N/A,,Scattered Clouds,120,2013-04-09 03:35:00
10:55 PM,70.0,69.3,98,29.93,10.0,ESE,8.1,-,N/A,,Scattered Clouds,120,2013-04-09 03:55:00
11:15 PM,69.8,69.3,98,29.92,10.0,East,4.6,-,N/A,,Clear,100,2013-04-09 04:15:00
11:35 PM,69.1,69.1,100,29.92,10.0,ESE,5.8,-,N/A,,Scattered Clouds,110,2013-04-09 04:35:00
11:55 PM,69.1,69.1,100,29.92,10.0,ESE,4.6,-,N/A,,Overcast,110,2013-04-09 04:55:00